When you browse on this site, cookies collect data to enhance your experience and personalize the content and advertising you see.
Visit our Privacy Policy to learn more. By continuing to use the site, you agree to this use of cookies and data.
  • In Switzerland
  • List of Countries
  • For 7 days
  • Water Temperature
  • Weather Map
  • Weather Widgets
  • user-avatar
    Login

    Hourly Weather Olympia

    Today, 6 June, Saturday

    Time Temperature Precipitation Wind Pressure Humidity
    00:00 +8°C° 0 mm 2 mps 751 mmHg 93%
    01:00 +8°C° 0 mm 2 mps 751 mmHg 95%
    02:00 +7°C° 0 mm 2 mps 751 mmHg 95%
    03:00 +7°C° 0 mm 2 mps 752 mmHg 95%
    04:00 +7°C° 0 mm 2 mps 752 mmHg 96%
    05:00 +9°C° 0 mm 2 mps 752 mmHg 91%
    06:00 +10°C° 0 mm 2 mps 752 mmHg 85%
    07:00 +13°C° 0 mm 2 mps 752 mmHg 80%
    08:00 +13°C° 0.5 mm 2 mps 752 mmHg 82%
    09:00 +13°C° 0.5 mm 2 mps 752 mmHg 85%
    10:00 +14°C° 0.5 mm 2 mps 752 mmHg 88%
    11:00 +14°C° 1.1 mm 2 mps 751 mmHg 88%
    12:00 +15°C° 1.1 mm 2 mps 751 mmHg 88%
    13:00 +15°C° 1.1 mm 2 mps 751 mmHg 88%
    14:00 +14°C° 0.8 mm 3 mps 751 mmHg 85%
    15:00 +14°C° 0.8 mm 3 mps 751 mmHg 83%
    16:00 +14°C° 0.8 mm 3 mps 751 mmHg 81%
    17:00 +13°C° 0.3 mm 3 mps 751 mmHg 82%
    18:00 +14°C° 0.3 mm 2 mps 751 mmHg 84%
    19:00 +13°C° 0.3 mm 2 mps 752 mmHg 85%
    20:00 +12°C° 0 mm 2 mps 752 mmHg 88%
    21:00 +10°C° 0 mm 2 mps 752 mmHg 92%
    22:00 +8°C° 0 mm 2 mps 752 mmHg 95%
    23:00 +8°C° 0.1 mm 2 mps 752 mmHg 96%

    Tomorrow, 7 June, Sunday

    Time Temperature Precipitation Wind Pressure Humidity
    00:00 +8°C° 0.1 mm 2 mps 752 mmHg 96%
    01:00 +8°C° 0.1 mm 2 mps 753 mmHg 97%
    02:00 +8°C° 0.1 mm 2 mps 753 mmHg 97%
    03:00 +8°C° 0.1 mm 2 mps 753 mmHg 97%
    04:00 +8°C° 0.1 mm 2 mps 753 mmHg 97%
    05:00 +9°C° 0 mm 2 mps 754 mmHg 93%
    06:00 +10°C° 0 mm 2 mps 754 mmHg 90%
    07:00 +11°C° 0 mm 3 mps 754 mmHg 86%
    08:00 +14°C° 0.1 mm 2 mps 754 mmHg 76%
    09:00 +16°C° 0.1 mm 2 mps 755 mmHg 67%
    10:00 +17°C° 0.1 mm 2 mps 755 mmHg 57%
    11:00 +18°C° 0.2 mm 3 mps 755 mmHg 53%
    12:00 +19°C° 0.2 mm 4 mps 755 mmHg 50%
    13:00 +20°C° 0.2 mm 5 mps 755 mmHg 46%
    14:00 +19°C° 0 mm 6 mps 756 mmHg 46%
    15:00 +19°C° 0 mm 6 mps 756 mmHg 47%
    16:00 +17°C° 0 mm 7 mps 756 mmHg 48%
    17:00 +16°C° 0 mm 6 mps 756 mmHg 53%
    18:00 +15°C° 0 mm 6 mps 757 mmHg 58%
    19:00 +14°C° 0 mm 5 mps 757 mmHg 64%
    20:00 +13°C° 0 mm 5 mps 758 mmHg 71%
    21:00 +11°C° 0 mm 4 mps 758 mmHg 77%
    22:00 +10°C° 0 mm 4 mps 758 mmHg 84%
    23:00 +10°C° 0 mm 4 mps 759 mmHg 84%

    Day after tomorrow, 8 June, Monday

    Time Temperature Precipitation Wind Pressure Humidity
    00:00 +8°C° 0 mm 4 mps 759 mmHg 85%
    01:00 +8°C° 0 mm 4 mps 759 mmHg 85%
    02:00 +8°C° 0 mm 4 mps 759 mmHg 86%
    03:00 +7°C° 0 mm 4 mps 760 mmHg 87%
    04:00 +8°C° 0 mm 3 mps 760 mmHg 88%
    05:00 +8°C° 0 mm 4 mps 760 mmHg 83%
    06:00 +10°C° 0 mm 4 mps 760 mmHg 78%
    07:00 +12°C° 0 mm 4 mps 760 mmHg 72%
    08:00 +13°C° 0.1 mm 4 mps 761 mmHg 67%
    09:00 +13°C° 0.1 mm 4 mps 761 mmHg 62%
    10:00 +14°C° 0.1 mm 4 mps 761 mmHg 57%
    11:00 +15°C° 0 mm 5 mps 761 mmHg 54%
    12:00 +15°C° 0 mm 5 mps 761 mmHg 52%
    13:00 +16°C° 0 mm 5 mps 761 mmHg 50%
    14:00 +17°C° 0 mm 4 mps 761 mmHg 51%
    15:00 +15°C° 0 mm 4 mps 761 mmHg 53%
    16:00 +15°C° 0 mm 4 mps 761 mmHg 54%
    17:00 +15°C° 0 mm 4 mps 760 mmHg 57%
    18:00 +14°C° 0 mm 3 mps 760 mmHg 60%
    19:00 +14°C° 0 mm 2 mps 760 mmHg 63%
    20:00 +13°C° 0 mm 2 mps 760 mmHg 71%
    21:00 +11°C° 0 mm 1 mps 760 mmHg 80%
    22:00 +10°C° 0 mm 1 mps 760 mmHg 89%
    23:00 +10°C° 0 mm 1 mps 760 mmHg 86%

    9 June, Tuesday

    Time Temperature Precipitation Wind Pressure Humidity
    00:00 +10°C° 0 mm 1 mps 759 mmHg 83%
    01:00 +10°C° 0 mm 0 mps 759 mmHg 81%
    02:00 +9°C° 0.3 mm 0 mps 758 mmHg 85%
    03:00 +10°C° 0.3 mm 1 mps 758 mmHg 90%
    04:00 +10°C° 0.3 mm 1 mps 757 mmHg 94%
    05:00 +10°C° 2.5 mm 1 mps 757 mmHg 96%
    06:00 +10°C° 2.5 mm 1 mps 757 mmHg 97%
    07:00 +10°C° 2.5 mm 1 mps 756 mmHg 98%
    08:00 +11°C° 2.2 mm 1 mps 756 mmHg 98%
    09:00 +11°C° 2.2 mm 1 mps 756 mmHg 98%
    10:00 +11°C° 2.2 mm 1 mps 756 mmHg 98%
    11:00 +12°C° 0.8 mm 1 mps 757 mmHg 97%
    12:00 +13°C° 0.8 mm 2 mps 757 mmHg 96%
    13:00 +14°C° 0.8 mm 2 mps 757 mmHg 95%
    14:00 +14°C° 0.4 mm 2 mps 757 mmHg 93%
    15:00 +15°C° 0.4 mm 2 mps 757 mmHg 91%
    16:00 +15°C° 0.4 mm 2 mps 757 mmHg 89%
    17:00 +15°C° 0.3 mm 2 mps 757 mmHg 92%
    18:00 +15°C° 0.3 mm 2 mps 758 mmHg 94%
    19:00 +15°C° 0.3 mm 2 mps 758 mmHg 96%
    20:00 +14°C° 0 mm 1 mps 758 mmHg 97%
    21:00 +14°C° 0 mm 1 mps 758 mmHg 97%
    22:00 +13°C° 0 mm 1 mps 759 mmHg 98%
    23:00 +13°C° 0 mm 1 mps 759 mmHg 98%

    10 June, Wednesday

    Time Temperature Precipitation Wind Pressure Humidity
    00:00 +13°C° 0 mm 1 mps 759 mmHg 98%
    01:00 +13°C° 0 mm 1 mps 759 mmHg 98%
    02:00 +12°C° 0 mm 0 mps 759 mmHg 98%
    03:00 +12°C° 0 mm 0 mps 759 mmHg 97%
    04:00 +12°C° 0 mm 0 mps 759 mmHg 97%
    05:00 +13°C° 0 mm 0 mps 759 mmHg 95%
    06:00 +14°C° 0 mm 0 mps 759 mmHg 93%
    07:00 +15°C° 0 mm 0 mps 760 mmHg 90%
    08:00 +16°C° 0.1 mm 0 mps 759 mmHg 82%
    09:00 +17°C° 0.1 mm 0 mps 759 mmHg 74%
    10:00 +18°C° 0.1 mm 0 mps 759 mmHg 66%
    11:00 +20°C° 0 mm 0 mps 759 mmHg 60%
    12:00 +22°C° 0 mm 0 mps 759 mmHg 53%
    13:00 +24°C° 0 mm 0 mps 758 mmHg 46%
    14:00 +24°C° 0 mm 0 mps 758 mmHg 45%
    15:00 +24°C° 0 mm 0 mps 758 mmHg 45%
    16:00 +26°C° 0 mm 1 mps 757 mmHg 44%
    17:00 +25°C° 0 mm 1 mps 757 mmHg 51%
    18:00 +23°C° 0 mm 1 mps 757 mmHg 58%
    19:00 +22°C° 0 mm 1 mps 757 mmHg 65%
    20:00 +18°C° 0 mm 2 mps 757 mmHg 70%
    21:00 +16°C° 0 mm 2 mps 758 mmHg 76%
    22:00 +14°C° 0 mm 2 mps 758 mmHg 81%
    23:00 +13°C° 0 mm 2 mps 759 mmHg 84%

    11 June, Thursday

    Time Temperature Precipitation Wind Pressure Humidity
    00:00 +12°C° 0 mm 1 mps 759 mmHg 87%
    01:00 +11°C° 0 mm 1 mps 759 mmHg 90%
    02:00 +11°C° 0 mm 1 mps 759 mmHg 90%
    03:00 +11°C° 0 mm 1 mps 759 mmHg 90%
    04:00 +11°C° 0 mm 1 mps 759 mmHg 90%
    05:00 +12°C° 0 mm 1 mps 759 mmHg 85%
    06:00 +14°C° 0 mm 1 mps 759 mmHg 79%
    07:00 +15°C° 0 mm 1 mps 760 mmHg 73%
    08:00 +18°C° 0 mm 1 mps 760 mmHg 67%
    09:00 +19°C° 0 mm 1 mps 759 mmHg 61%
    10:00 +21°C° 0 mm 1 mps 759 mmHg 55%
    11:00 +22°C° 0 mm 1 mps 759 mmHg 52%
    12:00 +23°C° 0 mm 1 mps 759 mmHg 49%
    13:00 +25°C° 0 mm 1 mps 759 mmHg 46%
    14:00 +24°C° 0 mm 1 mps 759 mmHg 47%
    15:00 +24°C° 0 mm 1 mps 759 mmHg 49%
    16:00 +23°C° 0 mm 2 mps 759 mmHg 50%
    17:00 +21°C° 0 mm 2 mps 759 mmHg 54%
    18:00 +19°C° 0 mm 2 mps 758 mmHg 59%
    19:00 +18°C° 0 mm 2 mps 758 mmHg 63%
    20:00 +17°C° 0 mm 2 mps 759 mmHg 67%
    21:00 +15°C° 0 mm 1 mps 759 mmHg 71%
    22:00 +14°C° 0 mm 1 mps 759 mmHg 76%
    23:00 +14°C° 0 mm 1 mps 759 mmHg 76%
    Show more